User: anonymous   Login
Location: Newark
(31.5350°N, 35.0986°E)
Time: 14:03:34
(UTC+00:00)
Language:

Vanguard 3 - Orbit

View from above orbital plane
View from above orbital plane
View from above satellite
View from above satellite

Ground track
Ground track

The orbit data is extracted from the following two-line orbital elements,

1    20U 59007A   19296.12331660  .00000049  00000-0  27519-4 0  9993
2    20  33.3438 311.0938 1666262  82.4881 296.1083 11.55689250203065
Epoch (UTC): 23 October 2019 02:57:34
Eccentricity: 0.1666262
inclination: 33.3438°
perigee height: 508 km
apogee height: 3262 km
right ascension of ascending node: 311.0938°
argument of perigee: 82.4881°
revolutions per day: 11.55689250
mean anomaly at epoch: 296.1083°
orbit number at epoch: 20306

The dashed part of the orbit path shows where the satellite is in the earth's shadow,  

DLR